Flag for Micronesia Weather past 2 weeks in Colonia, Yap, Micronesia

Now
78 °F

Partly cloudy.


Feels Like: 82 °F
Forecast: 78 / 87 °F
Wind: No wind

Location: Yap Island

Current Time: May 26, 2015 at 4:28:54 AM

Latest Report: May 26, 2015 at 3:54 AM


Visibility: 12 mi

Pressure: 29.86 "Hg

Humidity: 93%

Dew point: 76 °F

Location of ColoniaLocation

Historic Weather in Colonia — Graph

°F

Colonia temperature yesterday

Maximum temperature yesterday: 82 °F (at 3:50 PM)
Minimum temperature yesterday: 77 °F (at 5:51 AM)
Average temperature yesterday: 79 °F

Past Weeks' High & Low Weather Summary

 TemperatureHumidityPressure
High88 °F (May 14, 12:52 PM)97% (May 24, 6:52 AM)29.93 "Hg (May 24, 6:52 AM)
Low74 °F (May 24, 2:50 AM)60% (May 14, 11:52 AM)29.70 "Hg (May 16, 4:51 PM)
Average82 °F82%29.84 "Hg
* Reported May 11 2:50 AM — May 26 2:52 AM, Colonia, Weather by CustomWeather, © 2015

Note: Actual official high and low records may vary slightly from our data, if they occured in-between our weather recording intervals... More about our weather records

Advertising

Colonia weather history for previous 24 hours

 ConditionsComfort  
Time TempWeatherWind HumidityBarometerVisibility
2:52 AM
Tue, May 26
79 °FPartly cloudy.No wind92%29.86 "Hg12 mi
1:50 AM80 °FPartly cloudy.2 mph90%29.86 "Hg12 mi
12:51 AM79 °FPartly cloudy.No wind90%29.88 "Hg12 mi
11:50 PM
Mon, May 25
79 °FPartly cloudy.No wind90%29.89 "Hg12 mi
10:50 PM80 °FPartly cloudy.No wind89%29.90 "Hg12 mi
9:50 PM80 °FPartly cloudy.No wind92%29.89 "Hg12 mi
8:53 PM80 °FMostly cloudy.5 mph91%29.88 "Hg12 mi
7:50 PM81 °FMore clouds than sun.5 mph87%29.85 "Hg12 mi
6:50 PM81 °FMore clouds than sun.3 mph87%29.83 "Hg12 mi
5:52 PM81 °FMore clouds than sun.5 mph87%29.81 "Hg12 mi
4:50 PM82 °FMore clouds than sun.7 mph86%29.80 "Hg12 mi
3:50 PM82 °FMore clouds than sun.7 mph86%29.80 "Hg12 mi
2:55 PM82 °FSprinkles. Cloudy.7 mph87%29.83 "Hg10 mi
1:55 PM81 °FCloudy.No wind88%29.85 "Hg12 mi
12:53 PM80 °FSprinkles. Cloudy.3 mph93%29.88 "Hg10 mi
11:52 AM81 °FScattered showers. Cloudy.6 mph89%29.89 "Hg12 mi
10:58 AM82 °FMore clouds than sun.6 mph90%29.90 "Hg12 mi
9:53 AM77 °FSprinkles. Cloudy.3 mph96%29.93 "Hg10 mi
8:51 AM77 °FSprinkles. Cloudy.No wind96%29.91 "Hg8 mi
7:54 AM77 °FSprinkles. Cloudy.5 mph96%29.90 "Hg6 mi
6:54 AM77 °FSprinkles. Overcast.7 mph96%29.88 "Hg11 mi
5:51 AM77 °FSprinkles. Partly cloudy.3 mph97%29.86 "Hg11 mi
4:52 AM77 °FOvercast.No wind96%29.85 "Hg12 mi
Weather by CustomWeather, © 2015

See weather overviewHow to use our weather pages